Terminal Aerodrome Forecast
Issued by NWS Raleigh/Durham, NC

Home | Current Version | Previous Version | Text Only | Print | Product List | Glossary On
Versions: 1 2 3 4 5 6 7 8 9 10 11 12 13 14 15 16 17 18 19 20 21 22 23 24 25 26 27 28 29 30 31 32 33 34 35 36 37 38 39 40 41 42 43 44 45 46 47 48
000
FTUS42 KRAH 262339
TAFGSO
TAF
KGSO 262339Z 2700/2724 00000KT P6SM SCT025
     FM270400 00000KT P6SM OVC015
      TEMPO 2704/2708 VRB03KT 3SM RA OVC007
     FM271500 32012G18KT P6SM BKN030=

USA.gov is the U.S. government's official web portal to all federal, state and local government web resources and services.